Weather History for Peru, IL

Change the Weather History Date:

Wednesday, March 5, 2014

  Actual Average Record
Temperature  
Mean Temperature 21 °F -  
Max Temperature 24 °F 42 °F 69 °F (1983)
Min Temperature 18 °F 25 °F -3 °F (1978)
Degree Days  
Heating Degree Days 44    
Moisture  
Dew Point 17 °F    
Average Humidity 82    
Maximum Humidity 90    
Minimum Humidity 71    
Precipitation  
Precipitation 0.01 in - - ()
Sea Level Pressure  
Sea Level Pressure 30.35 in    
Wind  
Wind Speed 10 mph (ENE)    
Max Wind Speed 17 mph    
Max Gust Speed 22 mph    
Visibility 6 miles    
Events Snow    
Averages and records for this station are not official NWS values.
T = Trace of Precipitation, MM = Missing Value Source: NWS Daily Summary

Daily Weather History Graph

Daily Weather History Graph

Search for Another Location

Airport:

Trip Planner

Search our weather history database for the weather conditions in past years. The results will help you decide how hot, cold, wet, or windy it might be!

Date:

Astronomy

Mar. 05, 2014 Rise Set
Actual Time 6:24 AM CST 5:52 PM CST
Civil Twilight 5:57 AM CST 6:19 PM CST
Nautical Twilight 5:25 AM CST 6:51 PM CST
Astronomical Twilight 4:53 AM CST 7:23 PM CST
Moon 8:47 AM CST (3/5) 11:04 PM CST (3/5)
Length of Visible Light 12h 22m
Length of Day
11h 27m
Waxing Crescent, 23% of the Moon is Illuminated
Mar 5
Waxing Crescent
Mar 8
First Quarter
Mar 16
Full
Mar 23
Last Quarter
Mar 30
New

Hourly Weather History & Observations

Time (CST) Temp. Windchill Dew Point Humidity Pressure Visibility Wind Dir Wind Speed Gust Speed Precip Events Conditions
12:15 AM 19.0 °F 11.1 °F 11.3 °F 72% 30.23 in 10.0 mi East 5.8 mph - N/A   Mostly Cloudy
12:35 AM 19.4 °F 11.5 °F 12.0 °F 73% 30.24 in 10.0 mi ENE 5.8 mph - N/A   Mostly Cloudy
12:55 AM 19.4 °F 11.5 °F 12.0 °F 73% 30.25 in 10.0 mi ENE 5.8 mph - N/A   Overcast
1:15 AM 19.8 °F 11.9 °F 12.2 °F 72% 30.25 in 10.0 mi ENE 5.8 mph - N/A   Overcast
1:30 AM 20.1 °F 12.3 °F 12.0 °F 71% 30.25 in 10.0 mi ENE 5.8 mph - N/A   Overcast
1:55 AM 19.9 °F 12.1 °F 12.7 °F 74% 30.25 in 10.0 mi ENE 5.8 mph - N/A   Mostly Cloudy
2:15 AM 20.8 °F 11.2 °F 13.1 °F 72% 30.24 in 10.0 mi ENE 8.1 mph - N/A   Overcast
2:35 AM 21.2 °F 11.7 °F 13.6 °F 73% 30.25 in 10.0 mi ENE 8.1 mph - N/A   Overcast
2:55 AM 21.7 °F 11.5 °F 14.2 °F 73% 30.25 in 10.0 mi ENE 9.2 mph - N/A   Overcast
3:15 AM 21.9 °F 10.4 °F 14.7 °F 74% 30.24 in 10.0 mi ENE 11.5 mph - N/A   Overcast
3:35 AM 21.9 °F 10.4 °F 14.9 °F 74% 30.25 in 10.0 mi ENE 11.5 mph 16.1 mph N/A   Overcast
3:55 AM 22.1 °F 11.3 °F 15.4 °F 76% 30.26 in 10.0 mi ENE 10.4 mph - N/A   Overcast
4:15 AM 22.1 °F 11.3 °F 15.8 °F 77% 30.26 in 10.0 mi ENE 10.4 mph - N/A   Overcast
4:35 AM 22.3 °F 12.2 °F 16.3 °F 78% 30.28 in 10.0 mi ENE 9.2 mph - N/A   Overcast
4:55 AM 22.1 °F 10.0 °F 17.2 °F 82% 30.28 in 10.0 mi ENE 12.7 mph - N/A   Overcast
5:15 AM 21.9 °F 8.7 °F 18.0 °F 85% 30.27 in 10.0 mi ENE 15.0 mph - N/A   Overcast
5:35 AM 21.9 °F 9.2 °F 18.5 °F 87% 30.28 in 10.0 mi ENE 13.8 mph - N/A   Overcast
5:55 AM 21.9 °F 9.8 °F 18.9 °F 88% 30.29 in 10.0 mi ENE 12.7 mph - N/A   Overcast
6:15 AM 21.2 °F 10.1 °F 18.3 °F 89% 30.31 in 2.0 mi ENE 10.4 mph - N/A Snow Light Snow
6:35 AM 21.2 °F 9.5 °F 18.5 °F 89% 30.32 in 0.8 mi ENE 11.5 mph - N/A Snow Light Snow
6:55 AM 21.0 °F 9.3 °F 18.5 °F 90% 30.33 in 0.5 mi ENE 11.5 mph - N/A Snow Snow
7:15 AM 20.8 °F 9.7 °F 18.3 °F 90% 30.34 in 0.8 mi ENE 10.4 mph - N/A Snow Light Snow
7:35 AM 20.7 °F 9.5 °F 18.1 °F 90% 30.35 in 1.0 mi ENE 10.4 mph - N/A Snow Light Snow
7:55 AM 20.8 °F 8.4 °F 18.1 °F 89% 30.35 in 0.5 mi ENE 12.7 mph - N/A Snow Snow
8:15 AM 20.7 °F 8.8 °F 17.8 °F 89% 30.36 in 1.0 mi ENE 11.5 mph 18.4 mph N/A Snow Light Snow
8:35 AM 21.0 °F 8.6 °F 18.1 °F 89% 30.36 in 0.8 mi ENE 12.7 mph - N/A Snow Light Snow
8:55 AM 21.2 °F 9.5 °F 18.3 °F 89% 30.36 in 0.8 mi ENE 11.5 mph - N/A Snow Light Snow
9:15 AM 21.9 °F 9.2 °F 18.5 °F 87% 30.37 in 1.2 mi ENE 13.8 mph - N/A Snow Light Snow
9:35 AM 21.7 °F 9.6 °F 18.3 °F 87% 30.37 in 1.2 mi ENE 12.7 mph 18.4 mph N/A Snow Light Snow
9:55 AM 21.9 °F 8.7 °F 18.5 °F 87% 30.37 in 0.8 mi ENE 15.0 mph 19.6 mph N/A Snow Light Snow
10:15 AM 21.9 °F 8.7 °F 18.7 °F 87% 30.37 in 0.8 mi ENE 15.0 mph - 0.01 in Snow Light Snow
10:35 AM 21.9 °F 10.4 °F 18.9 °F 88% 30.37 in 0.5 mi ENE 11.5 mph - 0.01 in Snow Snow
10:55 AM 22.1 °F 10.6 °F 18.9 °F 87% 30.37 in 1.8 mi ENE 11.5 mph - 0.01 in Snow Light Snow
11:15 AM 22.6 °F 10.7 °F 19.0 °F 86% 30.38 in 5.0 mi East 12.7 mph - N/A Snow Light Snow
11:35 AM 22.8 °F 12.2 °F 19.2 °F 86% 30.38 in 1.0 mi East 10.4 mph - N/A Snow Light Snow
11:55 AM 23.0 °F 9.2 °F 18.5 °F 83% 30.38 in 1.5 mi East 17.3 mph 21.9 mph N/A Snow Light Snow
12:15 PM 23.0 °F 10.1 °F 18.7 °F 84% 30.38 in 1.8 mi East 15.0 mph 20.7 mph N/A Snow Light Snow
12:35 PM 23.0 °F 10.1 °F 18.5 °F 83% 30.37 in 1.5 mi East 15.0 mph - N/A Snow Light Snow
12:55 PM 23.5 °F 11.3 °F 18.9 °F 82% 30.37 in 1.8 mi East 13.8 mph - N/A Snow Light Snow
1:15 PM 23.7 °F 11.5 °F 19.0 °F 82% 30.36 in 4.0 mi East 13.8 mph - N/A Snow Light Snow
1:35 PM 23.9 °F 12.3 °F 19.0 °F 82% 30.36 in 3.0 mi East 12.7 mph - N/A Snow Light Snow
1:55 PM 24.4 °F 14.2 °F 19.9 °F 83% 30.36 in 2.0 mi East 10.4 mph - N/A Snow Light Snow
2:15 PM 24.6 °F 13.2 °F 19.4 °F 81% 30.36 in 4.0 mi East 12.7 mph - N/A   Haze
2:35 PM 24.6 °F 12.2 °F 18.9 °F 79% 30.37 in 7.0 mi East 15.0 mph 20.7 mph N/A   Overcast
2:55 PM 24.6 °F 12.2 °F 17.6 °F 75% 30.37 in 10.0 mi ENE 15.0 mph - N/A   Overcast
3:15 PM 24.6 °F 12.2 °F 17.6 °F 75% 30.37 in 10.0 mi East 15.0 mph 19.6 mph N/A   Overcast
3:35 PM 24.6 °F 13.2 °F 17.6 °F 75% 30.38 in 4.0 mi East 12.7 mph - N/A   Haze
3:55 PM 24.3 °F 12.2 °F 18.7 °F 79% 30.38 in 4.0 mi ENE 13.8 mph - N/A Snow Light Snow
4:15 PM 23.9 °F 11.2 °F 18.7 °F 80% 30.38 in 4.0 mi East 15.0 mph - N/A Snow Light Snow
4:35 PM 23.5 °F 9.9 °F 18.1 °F 80% 30.37 in 2.0 mi ENE 17.3 mph - N/A Snow Light Snow
4:55 PM 23.4 °F 11.1 °F 18.5 °F 82% 30.37 in 3.0 mi ENE 13.8 mph - N/A Snow Light Snow
5:15 PM 23.0 °F 10.1 °F 18.3 °F 82% 30.38 in 3.0 mi ENE 15.0 mph - N/A Snow Light Snow
5:35 PM 23.0 °F 10.6 °F 18.3 °F 82% 30.38 in 2.5 mi ENE 13.8 mph - N/A Snow Light Snow
5:55 PM 22.6 °F 9.6 °F 18.3 °F 83% 30.38 in 2.5 mi ENE 15.0 mph 19.6 mph N/A   Overcast
6:15 PM 22.5 °F 9.9 °F 18.3 °F 84% 30.39 in 3.0 mi ENE 13.8 mph - N/A   Overcast
6:35 PM 22.5 °F 10.5 °F 18.3 °F 84% 30.39 in 7.0 mi ENE 12.7 mph - N/A   Overcast
6:55 PM 22.1 °F 11.3 °F 18.1 °F 85% 30.39 in 5.0 mi ENE 10.4 mph 17.3 mph N/A Snow Light Snow
7:15 PM 22.1 °F 10.0 °F 18.1 °F 85% 30.40 in 7.0 mi ENE 12.7 mph 17.3 mph N/A   Mostly Cloudy
7:35 PM 22.1 °F 9.5 °F 18.0 °F 84% 30.40 in 10.0 mi East 13.8 mph - N/A   Overcast
7:55 PM 22.1 °F 11.3 °F 17.8 °F 83% 30.41 in 10.0 mi East 10.4 mph - N/A   Overcast
8:15 PM 22.1 °F 12.8 °F 17.6 °F 83% 30.41 in 7.0 mi ENE 8.1 mph - N/A   Overcast
8:35 PM 21.2 °F 11.7 °F 17.6 °F 86% 30.41 in 7.0 mi ENE 8.1 mph - N/A Snow Light Snow
8:55 PM 21.0 °F 10.6 °F 17.6 °F 87% 30.41 in 5.0 mi ENE 9.2 mph - N/A Snow Light Snow
9:15 PM 20.7 °F 11.0 °F 17.4 °F 87% 30.41 in 5.0 mi ENE 8.1 mph - N/A Snow Light Snow
9:35 PM 20.3 °F 9.8 °F 17.2 °F 88% 30.40 in 7.0 mi ENE 9.2 mph - N/A Snow Light Snow
9:55 PM 20.1 °F 10.3 °F 16.7 °F 87% 30.40 in 10.0 mi NE 8.1 mph - N/A   Overcast
10:15 PM 19.6 °F 9.7 °F 16.0 °F 86% 30.40 in 10.0 mi ENE 8.1 mph - N/A   Scattered Clouds
10:35 PM 19.4 °F 9.5 °F 15.4 °F 85% 30.39 in 10.0 mi ENE 8.1 mph - N/A   Clear
10:55 PM 19.4 °F 10.4 °F 14.9 °F 83% 30.39 in 10.0 mi NE 6.9 mph - N/A   Clear
11:15 PM 18.5 °F 8.4 °F 14.0 °F 83% 30.39 in 10.0 mi NE 8.1 mph - N/A   Scattered Clouds
11:35 PM 18.3 °F 8.2 °F 13.5 °F 81% 30.39 in 10.0 mi ENE 8.1 mph - N/A   Scattered Clouds
11:55 PM 18.1 °F 8.9 °F 13.1 °F 81% 30.39 in 10.0 mi ENE 6.9 mph - N/A   Scattered Clouds